Database: COMPET-N - COOP - 3PL - 4PL - CNDOOM

WAD: Doom | Doom 2 | TNT | Plutonia | AV | HR | Scythe | MM | MM2 | Requiem | CE
Category: speed | nmare | max | nm100s | tyson | pacifist | fast | respawn | nomo | misc | built | all
Highscore: ALL | IWAD | PWAD | Country | Continent

Remove: wad | map | category | player | all
MapPlayerTimeDateFilenameCommentsDL
E1M1: HangarRadek Pecka32.002002-05-13r1m1-032.zip - 357
MAP01: The GatewayRadek Pecka37.002004-08-04rr01-037.zip - 303
MAP01: The GatewayRadek Pecka40.002002-02-25rr01-040.zip - 205
MAP20: The Forsaken HallRadek Pecka41.002003-03-05rr20-041.zip - 135
MAP01: System ControlRadek Pecka47.002001-10-22er01-047.zip - 253
MAP01: System ControlRadek Pecka50.002001-10-19er01-050.zip - 199
MAP02: SacrificiumRadek Pecka1:02.002004-08-03rr02-102.zip - 175
MAP02: SacrificiumRadek Pecka1:06.002001-11-23rr02-106.zip - 78
MAP04: The FocusRadek Pecka1:09.002001-05-21re04-109.zip - 186
MAP02: The Feeding PitRadek Pecka1:09.002002-04-10m202r109.zip - 190
MAP02: UnderhallsRadek Pecka1:10.002003-01-01re02-110.zip - 140
MAP02: UnderhallsRadek Pecka1:14.002000-08-20re02-114.zip - 104
MAP01: OutpostRadek Pecka1:21.002002-05-02m201r121.zip - 221
E2M1: Deimos AnomalyRadek Pecka1:24.002001-01-14r2m1-124.zip - 62
E4M4: Unruly EvilRadek Pecka1:27.002001-03-26r4m4-127.zip - 149
MAP22: The CatacombsRadek Pecka1:27.002001-05-21re22-127.zip - 165
MAP25: BloodfallsRadek Pecka1:30.002003-01-13re25-130.zip - 170
E1M4: Command ControlRadek Pecka1:35.002003-02-02r1m4-135.zip - 201
E4M1: Hell BeneathRadek Pecka1:37.002001-12-04r4m1-137.zip - 182
E3M7: Gate To LimboRadek Pecka1:45.002000-09-20r3m7-145.zip - 158
E1M4: Command ControlRadek Pecka1:50.002000-08-27r1m4-150.zip - 84
E4M7: And Hell FollowedRadek Pecka1:50.002001-11-25r4m7-150.zip - 173
E3M9: WarrensRadek Pecka1:54.002002-05-12r3m9-154.zip - 162
E4M5: They Will RepentRadek Pecka1:54.002001-12-07r4m5-154.zip - 166
E3M2: Slough Of DespairRadek Pecka1:55.002000-08-27r3m2-155.zip - 186
MAP10: RedemptionRadek Pecka1:57.002003-02-26er10-157.zip - 153
E4M3: Sever The WickedRadek Pecka1:58.002001-12-07r4m3-158.zip - 168
E4M9: FearRadek Pecka1:59.002001-12-08r4m9-159.zip - 170
E2M3: RefineryRadek Pecka2:07.002001-12-02r2m3-207.zip - 151
E3M6: Mt. ErebusRadek Pecka2:07.002000-11-23r3m6-207.zip - 181
E3M3: PandemoniumRadek Pecka2:14.002000-10-20r3m3-214.zip - 63
E1M9: Military BaseRadek Pecka2:15.002000-08-27r1m9-215.zip - 66
MAP11: Circle Of DeathRadek Pecka2:15.002002-03-06re11-215.zip - 144
MAP28: The Spirit WorldRadek Pecka2:18.002002-03-02re28-218.zip - 163
E3M6: Mt. ErebusRadek Pecka2:22.002000-08-27r3m6-222.zip - 82
MAP31: WolfensteinRadek Pecka2:22.002002-02-28re31-222.zip - 179
MAP01: CongoRadek Pecka2:26.002002-04-28pr01-226.zip - 243
E1M3: Toxin RefineryRadek Pecka2:27.002000-11-15r1m3-227.zip - 97
MAP05: The Waste TunnelsRadek Pecka2:27.002001-05-22re05-227.zip - 144
E1M7: Computer StationRadek Pecka2:31.002000-11-15r1m7-231.zip - 66
MAP18: The CourtyardRadek Pecka2:37.002002-03-17re18-237.zip - 153
E1M5: Phobos LabRadek Pecka2:39.002000-08-27r1m5-239.zip - 93
E4M6: Against Thee WickedlyRadek Pecka2:43.002001-12-09r4m6-243.zip - 181
E3M5: Unholy CathedralRadek Pecka2:44.002001-11-30r3m5-244.zip - 152
MAP27: Monster CondoRadek Pecka2:52.002002-03-03re27-252.zip - 146
MAP03: Power ControlRadek Pecka2:56.002003-02-26er03-256.zip - 163
E2M2: Containment AreaRadek Pecka2:59.002001-12-04r2m2-259.zip - 161
MAP10: Refueling BaseRadek Pecka3:25.002002-04-29re10-325.zip - 163
E1M6: Central ProcessingRadek Pecka3:36.002000-08-27r1m6-336.zip - 161
E2M7: Spawning VatsRadek Pecka3:36.002000-11-14r2m7-336.zip - 146
E2M6: Halls Of The DamnedRadek Pecka3:46.002000-09-03r2m6-346.zip - 147
E2M5: Command CenterRadek Pecka3:47.002000-08-26r2m5-347.zip - 170
E2M4: Deimos LabRadek Pecka3:48.002000-08-26r2m4-348.zip - 65
MAP11: HuntedRadek Pecka3:49.002002-03-28pr11-349.zip - 86
E3M4: House Of PainRadek Pecka4:09.002000-11-27r3m4-409.zip - 143
E2M6: Halls Of The DamnedRadek Pecka4:21.002000-08-26r2m6-421.zip - 88
MAP19: The CitadelRadek Pecka4:54.002001-05-21re19-454.zip - 62
Remove: wad | map | category | player | all